Tracking 27122 objects as of 25-Mar-2023
HD Live streaming from Space Station
objects crossing your sky now

STARLINK-4188

Track STARLINK-4188 now!
10-day predictions
STARLINK-4188 is classified as:


NORAD ID: 52843
Int'l Code: 2022-062P
Perigee: 545.7 km
Apogee: 547.7 km
Inclination: 53.2 °
Period: 95.4 minutes
Semi major axis: 6917 km
RCS: Unknown
Launch date: June 17, 2022
Source: United States (US)
Launch site: AIR FORCE EASTERN TEST RANGE (AFETR)
Your satellite tracking list
Your tracking list is empty




NASA's NSSDC Master Catalog

Two Line Element Set (TLE):
1 52843U 22062P   23083.61641615  .00016155  00000-0  10290-2 0  9992
2 52843  53.2166 207.2457 0001404 104.3989 255.7159 15.08904395 43079
Source of the keplerian elements: AFSPC